Time,TemperatureF,DewpointF,PressureIn,WindDirection,WindDirectionDegrees,WindSpeedMPH,WindSpeedGustMPH,Humidity,HourlyPrecipIn,Conditions,Clouds,dailyrainin,SolarRadiationWatts/m^2,SoftwareType,DateUTC
2013-06-25 00:21:00,62.0,29.0,-100.00,NW,318,5.0,7.0,29,0.00,,,0.00,10.000000,,2013-06-25 08:21:00,
2013-06-25 00:33:00,61.0,28.0,-100.00,NW,309,2.0,5.0,28,0.00,,,0.00,3.000000,,2013-06-25 08:33:00,
2013-06-25 01:02:00,61.0,28.0,-100.00,NW,309,2.0,5.0,28,0.00,,,0.00,3.000000,,2013-06-25 09:02:00,
2013-06-25 01:12:00,61.0,28.0,-100.00,NW,309,2.0,5.0,28,0.00,,,0.00,3.000000,,2013-06-25 09:12:00,
2013-06-25 01:21:00,61.0,28.0,-100.00,NW,309,2.0,5.0,28,0.00,,,0.00,3.000000,,2013-06-25 09:21:00,
2013-06-25 02:33:00,62.0,29.0,-100.00,WNW,300,3.0,8.0,28,0.00,,,0.00,0.000000,,2013-06-25 10:33:00,
2013-06-25 03:02:00,62.0,29.0,-100.00,WNW,300,3.0,8.0,28,0.00,,,0.00,0.000000,,2013-06-25 11:02:00,
2013-06-25 03:11:00,62.0,29.0,-100.00,WNW,300,3.0,8.0,28,0.00,,,0.00,0.000000,,2013-06-25 11:11:00,
2013-06-25 03:21:00,62.0,29.0,-100.00,WNW,300,3.0,8.0,28,0.00,,,0.00,0.000000,,2013-06-25 11:21:00,
2013-06-25 03:33:00,61.0,27.0,-100.00,WSW,242,2.0,4.0,27,0.00,,,-99.99,0.000000,,2013-06-25 11:33:00,
2013-06-25 03:52:00,61.0,27.0,-100.00,WSW,242,2.0,4.0,27,0.00,,,-99.99,0.000000,,2013-06-25 11:52:00,
2013-06-25 04:01:00,61.0,27.0,-100.00,WSW,242,2.0,4.0,27,0.00,,,-99.99,0.000000,,2013-06-25 12:01:00,
2013-06-25 04:11:00,61.0,27.0,-100.00,WSW,242,2.0,4.0,27,0.00,,,-99.99,0.000000,,2013-06-25 12:11:00,
2013-06-25 04:22:00,61.0,27.0,-100.00,WSW,242,2.0,4.0,27,0.00,,,-99.99,0.000000,,2013-06-25 12:22:00,
2013-06-25 04:33:00,60.0,28.0,-100.00,NNW,328,4.0,5.0,30,0.00,,,0.00,3.000000,,2013-06-25 12:33:00,
2013-06-25 04:55:00,60.0,28.0,-100.00,NNW,328,4.0,5.0,30,0.00,,,0.00,3.000000,,2013-06-25 12:55:00,
2013-06-25 05:01:00,60.0,28.0,-100.00,NNW,328,4.0,5.0,30,0.00,,,0.00,3.000000,,2013-06-25 13:01:00,
2013-06-25 05:11:00,60.0,28.0,-100.00,NNW,328,4.0,5.0,30,0.00,,,0.00,3.000000,,2013-06-25 13:11:00,
2013-06-25 05:22:00,60.0,28.0,-100.00,NNW,328,4.0,5.0,30,0.00,,,0.00,3.000000,,2013-06-25 13:22:00,
2013-06-25 05:33:00,59.0,28.0,-100.00,SW,228,2.0,4.0,30,0.00,,,-99.99,15.000000,,2013-06-25 13:33:00,
2013-06-25 06:01:00,59.0,28.0,-100.00,SW,228,2.0,4.0,30,0.00,,,-99.99,15.000000,,2013-06-25 14:01:00,
2013-06-25 06:11:00,59.0,28.0,-100.00,SW,228,2.0,4.0,30,0.00,,,-99.99,15.000000,,2013-06-25 14:11:00,
2013-06-25 06:22:00,59.0,28.0,-100.00,SW,228,2.0,4.0,30,0.00,,,-99.99,15.000000,,2013-06-25 14:22:00,
2013-06-25 07:01:00,60.0,28.0,-100.00,NW,323,2.0,5.0,30,0.00,,,0.00,41.000000,,2013-06-25 15:01:00,
2013-06-25 07:11:00,60.0,28.0,-100.00,NW,323,2.0,5.0,30,0.00,,,0.00,41.000000,,2013-06-25 15:11:00,
2013-06-25 07:22:00,60.0,28.0,-100.00,NW,323,2.0,5.0,30,0.00,,,0.00,41.000000,,2013-06-25 15:22:00,
2013-06-25 07:32:00,60.0,28.0,-100.00,NW,323,2.0,5.0,30,0.00,,,0.00,41.000000,,2013-06-25 15:32:00,
2013-06-25 07:33:00,60.0,28.0,-100.00,WNW,296,3.0,10.0,30,0.00,,,0.00,181.000000,,2013-06-25 15:33:00,
2013-06-25 07:53:00,60.0,28.0,-100.00,WNW,296,3.0,10.0,30,0.00,,,0.00,181.000000,,2013-06-25 15:53:00,
2013-06-25 08:03:00,60.0,28.0,-100.00,WNW,296,3.0,10.0,30,0.00,,,0.00,181.000000,,2013-06-25 16:03:00,
2013-06-25 08:12:00,60.0,28.0,-100.00,WNW,296,3.0,10.0,30,0.00,,,0.00,181.000000,,2013-06-25 16:12:00,
2013-06-25 08:23:00,60.0,28.0,-100.00,WNW,296,3.0,10.0,30,0.00,,,0.00,181.000000,,2013-06-25 16:23:00,
2013-06-25 08:33:00,58.0,34.0,-100.00,NNW,348,4.0,9.0,40,0.00,,,0.00,208.000000,,2013-06-25 16:33:00,
2013-06-25 08:52:00,58.0,34.0,-100.00,NNW,348,4.0,9.0,40,0.00,,,0.00,208.000000,,2013-06-25 16:52:00,
2013-06-25 09:01:00,58.0,34.0,-100.00,NNW,348,4.0,9.0,40,0.00,,,0.00,208.000000,,2013-06-25 17:01:00,
2013-06-25 09:11:00,58.0,34.0,-100.00,NNW,348,4.0,9.0,40,0.00,,,0.00,208.000000,,2013-06-25 17:11:00,
2013-06-25 09:22:00,58.0,34.0,-100.00,NNW,348,4.0,9.0,40,0.00,,,0.00,208.000000,,2013-06-25 17:22:00,
2013-06-25 09:33:00,57.0,34.0,-100.00,WNW,283,4.0,11.0,42,0.00,,,0.00,308.000000,,2013-06-25 17:33:00,
2013-06-25 10:02:00,57.0,34.0,-100.00,WNW,283,4.0,11.0,42,0.00,,,0.00,308.000000,,2013-06-25 18:02:00,
2013-06-25 10:12:00,57.0,34.0,-100.00,WNW,283,4.0,11.0,42,0.00,,,0.00,308.000000,,2013-06-25 18:12:00,
2013-06-25 10:22:00,57.0,34.0,-100.00,WNW,283,4.0,11.0,42,0.00,,,0.00,308.000000,,2013-06-25 18:22:00,
2013-06-25 10:33:00,59.0,34.0,-100.00,SW,230,3.0,9.0,39,0.00,,,0.00,604.000000,,2013-06-25 18:33:00,
2013-06-25 10:53:00,59.0,34.0,-100.00,SW,230,3.0,9.0,39,0.00,,,0.00,604.000000,,2013-06-25 18:53:00,
2013-06-25 11:01:00,59.0,34.0,-100.00,SW,230,3.0,9.0,39,0.00,,,0.00,604.000000,,2013-06-25 19:01:00,
2013-06-25 11:12:00,59.0,34.0,-100.00,SW,230,3.0,9.0,39,0.00,,,0.00,604.000000,,2013-06-25 19:12:00,
2013-06-25 11:22:00,59.0,34.0,-100.00,SW,230,3.0,9.0,39,0.00,,,0.00,604.000000,,2013-06-25 19:22:00,
2013-06-25 11:33:00,62.0,32.0,-100.00,East,86,3.0,9.0,32,0.00,,,0.00,710.000000,,2013-06-25 19:33:00,
2013-06-25 12:01:00,62.0,32.0,-100.00,East,86,3.0,9.0,32,0.00,,,0.00,710.000000,,2013-06-25 20:01:00,
2013-06-25 12:11:00,62.0,32.0,-100.00,East,86,3.0,9.0,32,0.00,,,0.00,710.000000,,2013-06-25 20:11:00,
2013-06-25 12:22:00,62.0,32.0,-100.00,East,86,3.0,9.0,32,0.00,,,0.00,710.000000,,2013-06-25 20:22:00,
2013-06-25 12:33:00,65.0,33.0,-100.00,ESE,106,3.0,6.0,30,0.00,,,0.00,777.000000,,2013-06-25 20:33:00,
2013-06-25 13:01:00,65.0,33.0,-100.00,ESE,106,3.0,6.0,30,0.00,,,0.00,777.000000,,2013-06-25 21:01:00,
2013-06-25 13:11:00,65.0,33.0,-100.00,ESE,106,3.0,6.0,30,0.00,,,0.00,777.000000,,2013-06-25 21:11:00,
2013-06-25 13:22:00,65.0,33.0,-100.00,ESE,106,3.0,6.0,30,0.00,,,0.00,777.000000,,2013-06-25 21:22:00,
2013-06-25 13:33:00,66.0,32.0,-100.00,ESE,120,2.0,6.0,28,0.00,,,0.00,826.000000,,2013-06-25 21:33:00,
2013-06-25 14:01:00,66.0,32.0,-100.00,ESE,120,2.0,6.0,28,0.00,,,0.00,826.000000,,2013-06-25 22:01:00,
2013-06-25 14:11:00,66.0,32.0,-100.00,ESE,120,2.0,6.0,28,0.00,,,0.00,826.000000,,2013-06-25 22:11:00,
2013-06-25 14:22:00,66.0,32.0,-100.00,ESE,120,2.0,6.0,28,0.00,,,0.00,826.000000,,2013-06-25 22:22:00,
2013-06-25 14:33:00,68.0,37.0,-100.00,SW,214,4.0,8.0,32,0.00,,,0.00,842.000000,,2013-06-25 22:33:00,
2013-06-25 15:01:00,68.0,37.0,-100.00,SW,214,4.0,8.0,32,0.00,,,0.00,842.000000,,2013-06-25 23:01:00,
2013-06-25 15:11:00,68.0,37.0,-100.00,SW,214,4.0,8.0,32,0.00,,,0.00,842.000000,,2013-06-25 23:11:00,
2013-06-25 15:22:00,68.0,37.0,-100.00,SW,214,4.0,8.0,32,0.00,,,0.00,842.000000,,2013-06-25 23:22:00,
2013-06-25 17:32:00,70.0,35.0,-100.00,West,261,6.0,12.0,28,0.00,,,0.00,757.000000,,2013-06-26 01:32:00,
2013-06-25 17:33:00,69.0,36.0,-100.00,ESE,106,2.0,7.0,30,0.00,,,0.00,660.000000,,2013-06-26 01:33:00,
2013-06-25 17:53:00,69.0,36.0,-100.00,ESE,106,2.0,7.0,30,0.00,,,0.00,660.000000,,2013-06-26 01:53:00,
2013-06-25 18:02:00,69.0,36.0,-100.00,ESE,106,2.0,7.0,30,0.00,,,0.00,660.000000,,2013-06-26 02:02:00,
2013-06-25 18:11:00,69.0,36.0,-100.00,ESE,106,2.0,7.0,30,0.00,,,0.00,660.000000,,2013-06-26 02:11:00,
2013-06-25 18:22:00,69.0,36.0,-100.00,ESE,106,2.0,7.0,30,0.00,,,0.00,660.000000,,2013-06-26 02:22:00,
2013-06-25 18:33:00,68.0,35.0,-100.00,East,93,2.0,7.0,29,0.00,,,0.00,553.000000,,2013-06-26 02:33:00,
2013-06-25 18:53:00,68.0,35.0,-100.00,East,93,2.0,7.0,29,0.00,,,0.00,553.000000,,2013-06-26 02:53:00,
2013-06-25 19:02:00,68.0,35.0,-100.00,East,93,2.0,7.0,29,0.00,,,0.00,553.000000,,2013-06-26 03:02:00,
2013-06-25 19:11:00,68.0,35.0,-100.00,East,93,2.0,7.0,29,0.00,,,0.00,553.000000,,2013-06-26 03:11:00,
2013-06-25 19:22:00,68.0,35.0,-100.00,East,93,2.0,7.0,29,0.00,,,0.00,553.000000,,2013-06-26 03:22:00,
2013-06-25 19:33:00,67.0,35.0,-100.00,East,93,3.0,6.0,30,0.00,,,0.00,429.000000,,2013-06-26 03:33:00,
2013-06-25 19:52:00,67.0,35.0,-100.00,East,93,3.0,6.0,30,0.00,,,0.00,429.000000,,2013-06-26 03:52:00,
2013-06-25 20:01:00,67.0,35.0,-100.00,East,93,3.0,6.0,30,0.00,,,0.00,429.000000,,2013-06-26 04:01:00,
2013-06-25 20:12:00,67.0,35.0,-100.00,East,93,3.0,6.0,30,0.00,,,0.00,429.000000,,2013-06-26 04:12:00,
2013-06-25 20:22:00,67.0,35.0,-100.00,East,93,3.0,6.0,30,0.00,,,0.00,429.000000,,2013-06-26 04:22:00,
2013-06-25 20:33:00,65.0,39.0,-100.00,East,85,6.0,18.0,38,0.00,,,0.00,116.000000,,2013-06-26 04:33:00,
2013-06-25 20:53:00,65.0,39.0,-100.00,East,85,6.0,18.0,38,0.00,,,0.00,116.000000,,2013-06-26 04:53:00,
2013-06-25 21:02:00,65.0,39.0,-100.00,East,85,6.0,18.0,38,0.00,,,0.00,116.000000,,2013-06-26 05:02:00,
2013-06-25 21:11:00,65.0,39.0,-100.00,East,85,6.0,18.0,38,0.00,,,0.00,116.000000,,2013-06-26 05:11:00,
2013-06-25 21:21:00,65.0,39.0,-100.00,East,85,6.0,18.0,38,0.00,,,0.00,116.000000,,2013-06-26 05:21:00,
2013-06-25 21:33:00,63.0,40.0,-100.00,NE,40,11.0,20.0,43,0.00,,,0.00,19.000000,,2013-06-26 05:33:00,
2013-06-25 21:52:00,63.0,40.0,-100.00,NE,40,11.0,20.0,43,0.00,,,0.00,19.000000,,2013-06-26 05:52:00,
2013-06-25 22:01:00,63.0,40.0,-100.00,NE,40,11.0,20.0,43,0.00,,,0.00,19.000000,,2013-06-26 06:01:00,
2013-06-25 22:11:00,63.0,40.0,-100.00,NE,40,11.0,20.0,43,0.00,,,0.00,19.000000,,2013-06-26 06:11:00,
2013-06-25 22:22:00,63.0,40.0,-100.00,NE,40,11.0,20.0,43,0.00,,,0.00,19.000000,,2013-06-26 06:22:00,
2013-06-25 22:33:00,62.0,39.0,-100.00,North,9,6.0,18.0,42,0.00,,,0.00,44.000000,,2013-06-26 06:33:00,
2013-06-25 22:53:00,62.0,39.0,-100.00,North,9,6.0,18.0,42,0.00,,,0.00,44.000000,,2013-06-26 06:53:00,
2013-06-25 23:01:00,62.0,39.0,-100.00,North,9,6.0,18.0,42,0.00,,,0.00,44.000000,,2013-06-26 07:01:00,
2013-06-25 23:11:00,62.0,39.0,-100.00,North,9,6.0,18.0,42,0.00,,,0.00,44.000000,,2013-06-26 07:11:00,
2013-06-25 23:21:00,62.0,39.0,-100.00,North,9,6.0,18.0,42,0.00,,,0.00,44.000000,,2013-06-26 07:21:00,